[[{"header":{"parameterUnit":"m.s-1","parameterCategory":1,"la1":30.2991,"la2":30.254,"lo1":-89.0895,"lo2":-89.0444,"dy":0.0017,"dx":0.0017,"nx":28,"ny":28,"refTime":"2024-03-30T03:00:00:Z","depth":0,"parameterNumber":2,"parameterNumberName":"U-component_of_WINDS"},"data":[0,0,0,0,0,0,0,0,0,0,0,0,0,0,0,0,0,0,0,0,0,0,0,0,0,0,0,0,0,0,0,0,0,0,0,0,0,0,0,0,0,0,0,0,0,0,0,0,0,0,0,0,0,0,0,0,0,0,-0.6055,-0.6054,0,-0.5994,-0.5994,-0.5993,-0.5987,-0.5988,-0.5989,-0.5989,-0.5926,-0.5924,-0.5922,0,0,0,0,0,0,0,0,0,0,0,0,0,-0.6165,-0.6163,-0.6055,-0.6054,-0.6054,-0.5995,-0.5994,-0.5993,-0.5987,-0.5988,-0.5989,-0.599,-0.5927,-0.5924,-0.5921,0,0,0,0,0,0,0,0,0,0,0,0,0,-0.6112,-0.6162,-0.6055,-0.6044,-0.6042,-0.5995,-0.5994,-0.5993,-0.5987,-0.5988,-0.5989,-0.599,-0.5928,-0.5924,-0.5921,-0.588,0,0,-0.591,-0.5909,0,0,0,0,0,0,0,0,-0.6115,-0.6108,-0.6046,-0.6044,-0.6043,-0.6,-0.6009,-0.5955,-0.5987,-0.6008,-0.5989,-0.5991,-0.595,-0.5944,-0.5931,-0.5877,-0.5875,-0.591,-0.5908,-0.5907,-0.5906,0,0,0,0,0,0,0,-0.6119,-0.6111,-0.6031,-0.6045,-0.6043,-0.6041,-0.6035,-0.5999,-0.5974,-0.6006,-0.6006,-0.5999,-0.5949,-0.5934,-0.5929,-0.5874,-0.591,-0.5907,-0.5905,-0.5904,-0.5784,-0.5783,0,0,0,0,0,0,-0.6125,-0.6114,-0.6033,-0.6029,-0.6082,-0.6038,-0.6031,-0.6012,-0.5974,-0.597,-0.5998,-0.5999,-0.594,-0.5933,-0.5927,-0.5877,-0.5907,-0.5903,-0.5901,-0.5785,-0.5784,-0.5783,0,0,0,0,0,0,-0.6127,-0.6118,-0.6035,-0.6071,-0.6061,-0.6036,-0.6014,-0.6011,-0.5996,-0.5968,-0.5964,-0.5988,-0.594,-0.5932,-0.5892,-0.5875,-0.5902,-0.5899,-0.5787,-0.5785,-0.5783,-0.5778,0,0,0,0,0,0,-0.613,-0.6118,-0.6103,-0.6071,-0.6059,-0.6002,-0.6013,-0.6009,-0.599,-0.5991,-0.5957,-0.5953,-0.594,-0.5897,-0.5889,-0.5871,-0.5896,-0.5788,-0.5786,-0.5784,-0.5779,-0.5776,-0.5773,0,0,0,0,0,-0.6134,-0.6104,-0.6102,-0.6093,-0.6039,-0.6001,-0.5994,-0.5981,-0.5989,-0.5973,-0.5955,-0.5954,-0.5878,-0.5893,-0.5884,-0.5864,-0.5789,-0.5786,-0.5784,-0.5781,-0.5777,-0.5773,0,0,0,0,0,0,-0.6134,-0.6099,-0.6097,-0.6056,-0.6031,-0.6,-0.598,-0.5977,-0.5949,-0.5951,-0.5935,-0.5927,-0.5888,-0.5872,-0.589,-0.5823,-0.5834,-0.583,-0.5835,-0.5831,-0.5828,-0.5833,-0.5893,0,0,0,0,0,-0.6129,-0.6101,-0.6072,-0.6038,-0.6026,-0.6005,-0.5988,-0.598,-0.5954,-0.5943,-0.5922,-0.5897,-0.5867,-0.5848,-0.582,-0.5777,-0.5769,-0.5759,-0.5756,-0.5753,-0.575,-0.5726,-0.5721,-0.5774,-0.5774,-0.5774,0,0,-0.6119,-0.6096,-0.608,-0.6038,-0.6018,-0.5989,-0.5997,-0.5966,-0.5944,-0.5938,-0.59,-0.5884,-0.5854,-0.5813,-0.5793,-0.5798,-0.5733,-0.575,-0.5749,-0.5746,-0.5723,-0.5718,-0.5713,-0.5773,-0.5773,-0.5773,0,0,-0.6085,-0.6066,-0.6035,-0.6015,-0.5985,-0.5972,-0.5964,-0.5933,-0.5922,-0.5884,-0.5879,-0.5852,-0.5802,-0.5781,-0.5764,-0.5723,-0.572,-0.5714,-0.5698,-0.5675,-0.5671,-0.5667,-0.5652,-0.5647,-0.571,-0.571,-0.571,0,-0.6076,-0.6033,-0.602,-0.5989,-0.5971,-0.5965,-0.5934,-0.5915,-0.5877,-0.5864,-0.587,-0.5807,-0.5786,-0.574,-0.573,-0.5716,-0.5707,-0.5718,-0.5673,-0.5669,-0.5665,-0.5651,-0.5645,-0.5709,-0.5709,-0.5709,-0.571,0,-0.6024,-0.5994,-0.5973,-0.5937,-0.5916,-0.5885,-0.5867,-0.5847,-0.5841,-0.5826,-0.5787,-0.5762,-0.5728,-0.5716,-0.571,-0.5669,-0.5673,-0.5676,-0.5687,-0.5659,-0.5646,-0.564,-0.5709,-0.5709,-0.5709,-0.5709,0,0,-0.5989,-0.5946,-0.5939,-0.5922,-0.5889,-0.5865,-0.5834,-0.5801,-0.5785,-0.5759,-0.5732,-0.569,-0.5692,-0.5673,-0.5663,-0.5643,-0.5612,-0.5648,-0.5647,-0.5643,-0.5566,-0.5565,-0.5559,-0.561,-0.5609,-0.5608,-0.5569,0,-0.5952,-0.5897,-0.5884,-0.5837,-0.5809,-0.5803,-0.5776,-0.5752,-0.5737,-0.5711,-0.5695,-0.5665,-0.5671,-0.5659,-0.5638,-0.562,-0.5597,-0.5623,-0.5585,-0.5584,-0.5593,-0.5551,-0.555,-0.5514,-0.5563,-0.5562,-0.5562,0,-0.5902,-0.5875,-0.5826,-0.5796,-0.5784,-0.576,-0.5729,-0.5704,-0.5677,-0.5667,-0.5646,-0.5638,-0.5605,-0.5618,-0.5572,-0.559,-0.5574,-0.5563,-0.5561,-0.5557,-0.5572,-0.5547,-0.5502,-0.5496,-0.5553,-0.5554,-0.5555,0,-0.5882,-0.5834,-0.5798,-0.5784,-0.5748,-0.5731,-0.5715,-0.5689,-0.567,-0.5643,-0.5631,-0.56,-0.5583,-0.5559,-0.5543,-0.5554,-0.5499,-0.551,-0.549,-0.5491,-0.5479,-0.548,-0.5431,-0.5468,-0.5468,-0.5468,-0.5468,0,-0.5843,-0.5813,-0.5788,-0.5766,-0.5732,-0.5717,-0.5684,-0.5668,-0.5644,-0.5619,-0.5611,-0.5587,-0.5567,-0.5541,-0.5528,-0.5492,-0.5484,-0.5476,-0.5473,-0.5477,-0.5478,-0.5466,-0.5469,-0.5467,-0.5467,-0.5467,-0.5468,0,-0.5815,-0.5798,-0.5758,-0.5727,-0.5719,-0.5695,-0.5669,-0.5647,-0.5632,-0.56,-0.5591,-0.5568,-0.5536,-0.5518,-0.5477,-0.5469,-0.5429,-0.5427,-0.5438,-0.5437,-0.5419,-0.5421,-0.5361,-0.5352,-0.5394,-0.5394,-0.5394,0,-0.5792,-0.5768,-0.5735,-0.5718,-0.5702,-0.5673,-0.5654,-0.5638,-0.5619,-0.5586,-0.5568,-0.5536,-0.5509,-0.5458,-0.5437,-0.5406,-0.5404,-0.5385,-0.5399,-0.5404,-0.5404,-0.5406,-0.5403,-0.5383,-0.5382,-0.5382,-0.5382,0,-0.5751,-0.5744,-0.5717,-0.5687,-0.5664,-0.564,-0.5615,-0.5601,-0.5581,-0.5559,-0.5527,-0.5506,-0.5465,-0.5433,-0.5401,-0.5384,-0.5379,-0.5377,-0.5371,-0.5375,-0.5383,-0.5379,-0.5432,-0.5379,-0.5379,-0.5379,-0.5379,-0.538,-0.5725,-0.5704,-0.5678,-0.5648,-0.5628,-0.5605,-0.5583,-0.5566,-0.5538,-0.5504,-0.5496,-0.5462,-0.5435,-0.5391,-0.5373,-0.5346,-0.5349,-0.534,-0.5338,-0.5336,-0.5336,-0.5387,-0.534,-0.534,-0.534,-0.534,-0.534,0,-0.5685,-0.5668,-0.564,-0.5607,-0.5583,-0.5581,-0.5554,-0.5534,-0.5504,-0.548,-0.5454,-0.5416,-0.5385,-0.5362,-0.533,-0.5312,-0.531,-0.5305,-0.5306,-0.5302,-0.5334,-0.5343,-0.5308,-0.5308,-0.5308,-0.5308,-0.5308,-0.5308,-0.5661,-0.5626,-0.5615,-0.557,-0.5552,-0.5519,-0.5504,-0.5483,-0.5463,-0.5422,-0.5396,-0.5381,-0.5357,-0.5323,-0.5294,-0.5288,-0.5277,-0.5272,-0.5266,-0.5296,-0.53,-0.5303,-0.5311,-0.527,-0.527,-0.5236,-0.5235,-0.5235]},{"header":{"parameterUnit":"m.s-1","parameterCategory":1,"la1":30.2991,"la2":30.254,"lo1":-89.0895,"lo2":-89.0444,"dy":0.0017,"dx":0.0017,"nx":28,"ny":28,"refTime":"2024-03-30T03:00:00:Z","depth":0,"parameterNumber":3,"parameterNumberName":"V-component_of_WINDS"},"data":[0,0,0,0,0,0,0,0,0,0,0,0,0,0,0,0,0,0,0,0,0,0,0,0,0,0,0,0,0,0,0,0,0,0,0,0,0,0,0,0,0,0,0,0,0,0,0,0,0,0,0,0,0,0,0,0,0,0,0.7352,0.7353,0,0.7475,0.7476,0.7477,0.7483,0.7481,0.748,0.7479,0.7601,0.7606,0.761,0,0,0,0,0,0,0,0,0,0,0,0,0,0.7117,0.7122,0.7351,0.7353,0.7355,0.7474,0.7476,0.7478,0.7483,0.7481,0.748,0.7478,0.76,0.7605,0.7611,0,0,0,0,0,0,0,0,0,0,0,0,0,0.7227,0.7123,0.7351,0.7372,0.7375,0.7474,0.7476,0.7478,0.7484,0.7481,0.7479,0.7477,0.7598,0.7605,0.7611,0.7698,0,0,0.7633,0.7636,0,0,0,0,0,0,0,0,0.7221,0.7236,0.7367,0.737,0.7374,0.7461,0.7439,0.7552,0.7484,0.7442,0.7479,0.7476,0.7556,0.7566,0.7594,0.7703,0.7709,0.7633,0.7637,0.764,0.7642,0,0,0,0,0,0,0,0.7214,0.7231,0.74,0.7369,0.7373,0.7374,0.7387,0.746,0.751,0.7446,0.7446,0.7461,0.7558,0.7587,0.7597,0.771,0.7633,0.7639,0.7643,0.7646,0.7896,0.7898,0,0,0,0,0,0,0.7202,0.7224,0.7396,0.7404,0.7291,0.738,0.7394,0.7435,0.7509,0.7518,0.7463,0.7461,0.7577,0.7589,0.7601,0.7707,0.764,0.7647,0.7651,0.7893,0.7896,0.7899,0,0,0,0,0,0,0.7197,0.7218,0.7391,0.7314,0.7337,0.7386,0.7432,0.7439,0.7469,0.7522,0.753,0.7484,0.7576,0.7592,0.7674,0.7712,0.765,0.7656,0.7891,0.7894,0.7898,0.792,0,0,0,0,0,0,0.7191,0.7216,0.725,0.7315,0.7341,0.7463,0.7434,0.7443,0.7481,0.748,0.7545,0.7553,0.7575,0.7664,0.7681,0.772,0.7662,0.7887,0.7892,0.7897,0.7916,0.7924,0.793,0,0,0,0,0,0.7182,0.7251,0.7252,0.7272,0.7385,0.7465,0.7479,0.7504,0.7484,0.7519,0.7552,0.7551,0.7704,0.7672,0.7691,0.7733,0.7885,0.7891,0.7896,0.7912,0.7922,0.793,0,0,0,0,0,0,0.7188,0.726,0.7262,0.7353,0.7403,0.7466,0.751,0.7514,0.757,0.7566,0.7593,0.7608,0.7689,0.7719,0.7682,0.782,0.7792,0.7802,0.7798,0.7808,0.7815,0.7806,0.7667,0,0,0,0,0,0.72,0.726,0.7319,0.7394,0.7419,0.746,0.7496,0.7511,0.7563,0.7584,0.7624,0.7674,0.7733,0.7772,0.7829,0.792,0.7934,0.7958,0.7965,0.7971,0.7979,0.8029,0.804,0.7917,0.7917,0.7917,0,0,0.7225,0.7272,0.7308,0.7397,0.7437,0.7498,0.7478,0.7543,0.7589,0.7594,0.7674,0.7705,0.7762,0.7849,0.7889,0.7876,0.8016,0.7978,0.7982,0.7988,0.8036,0.8047,0.8058,0.7921,0.7921,0.792,0,0,0.7302,0.7344,0.7411,0.7452,0.7514,0.754,0.7556,0.7619,0.764,0.7721,0.7726,0.7779,0.7881,0.7922,0.7956,0.8048,0.8049,0.8066,0.8104,0.8152,0.8162,0.8171,0.8204,0.8215,0.8073,0.8074,0.8074,0,0.7326,0.7419,0.7445,0.7511,0.7549,0.7557,0.7625,0.7663,0.774,0.7766,0.7751,0.7879,0.7918,0.8014,0.8036,0.8063,0.8082,0.8059,0.8159,0.8168,0.8176,0.8208,0.822,0.8075,0.8075,0.8075,0.8075,0,0.7445,0.7509,0.7556,0.7631,0.7675,0.7741,0.7776,0.7816,0.7827,0.7855,0.7937,0.7984,0.8052,0.8075,0.8086,0.8173,0.8163,0.8153,0.8126,0.8189,0.8219,0.8232,0.8078,0.8077,0.8077,0.8076,0,0,0.753,0.7618,0.7635,0.7669,0.7738,0.7787,0.7853,0.792,0.7955,0.8007,0.8063,0.8148,0.8139,0.8178,0.8193,0.8235,0.8305,0.822,0.8221,0.8234,0.8404,0.8412,0.8425,0.8305,0.8308,0.831,0.8399,0,0.7615,0.7735,0.7759,0.7862,0.7922,0.793,0.7987,0.8034,0.8062,0.8116,0.8145,0.8206,0.8189,0.8213,0.8255,0.8288,0.8339,0.8281,0.8357,0.836,0.8344,0.8441,0.845,0.8532,0.8411,0.8413,0.8415,0,0.7731,0.7787,0.7896,0.7957,0.7982,0.8034,0.8097,0.8148,0.8202,0.8218,0.8261,0.8272,0.834,0.8308,0.8402,0.8362,0.8394,0.8415,0.8418,0.8427,0.8391,0.8453,0.8559,0.8571,0.8433,0.8432,0.843,0,0.7783,0.7886,0.7964,0.7993,0.8065,0.8101,0.8132,0.8184,0.8222,0.8277,0.8302,0.8363,0.8396,0.8443,0.8469,0.8444,0.8561,0.8531,0.8576,0.8576,0.8601,0.8599,0.8714,0.862,0.862,0.862,0.862,0,0.7876,0.7942,0.7988,0.8037,0.8111,0.8138,0.821,0.8241,0.8287,0.8341,0.835,0.84,0.8432,0.8486,0.8506,0.858,0.8595,0.861,0.8615,0.861,0.8608,0.8632,0.8627,0.8623,0.8623,0.8622,0.8621,0,0.7947,0.798,0.8067,0.8128,0.8145,0.8197,0.8249,0.8295,0.8322,0.839,0.8407,0.845,0.8514,0.8545,0.8624,0.8637,0.8722,0.8722,0.8704,0.8706,0.8749,0.8745,0.8884,0.8904,0.8797,0.8798,0.8798,0,0.8005,0.8056,0.8123,0.816,0.8193,0.8252,0.8292,0.832,0.836,0.8425,0.8463,0.8528,0.8582,0.8683,0.872,0.8781,0.8783,0.8828,0.8792,0.8786,0.8785,0.8782,0.8787,0.8834,0.8835,0.8836,0.8837,0,0.8103,0.8117,0.8175,0.8238,0.8285,0.8335,0.8385,0.8415,0.845,0.8495,0.8561,0.8603,0.8684,0.8748,0.8811,0.8842,0.8845,0.8848,0.8861,0.8857,0.8845,0.8853,0.8722,0.8845,0.8844,0.8843,0.8843,0.8843,0.817,0.8216,0.827,0.8334,0.8374,0.842,0.8467,0.85,0.8557,0.8626,0.8638,0.8709,0.876,0.8845,0.8878,0.8932,0.8922,0.8942,0.8947,0.8952,0.8954,0.8835,0.8944,0.8944,0.8943,0.8943,0.8943,0,0.827,0.8305,0.8363,0.8433,0.8482,0.8482,0.8537,0.8578,0.864,0.8688,0.874,0.8816,0.8878,0.892,0.8983,0.9018,0.9022,0.9034,0.9032,0.9039,0.896,0.8942,0.903,0.903,0.903,0.903,0.903,0.903,0.8328,0.8406,0.8426,0.8524,0.8558,0.8628,0.866,0.8702,0.874,0.8825,0.8877,0.8904,0.895,0.9016,0.9072,0.9083,0.9105,0.9118,0.9128,0.9054,0.9045,0.9036,0.9019,0.9123,0.9123,0.9204,0.9204,0.9205]}]]